Wind_Speed
69 72 74 76 75 72 70 73 74 71 69 66 64 61 59 58 56 54 54 53 52 51 50 49 48 47 47 46 45 44 44 45 45 44 40 40 41 39 39 40 38 36 41 47 51 52 48 47 48 45 43 46 44 39 39 39 39 38 38 37 36 34 32 30 27 25 24 23 21 20 19 19 19 20 20 20 19 19 18 19 18 18 17 17 18 17 17 17
66 70 71 72 74 73 70 71 73 72 69 66 64 61 59 57 56 54 54 53 52 51 50 50 48 48 47 47 47 46 45 45 45 45 41 41 42 40 39 40 39 37 41 46 50 53 49 46 48 45 44 47 46 42 41 41 40 39 38 37 36 35 34 32 28 26 25 24 23 21 20 21 21 20 20 20 20 20 20 19 19 18 17 18 18 17 17 17
63 68 70 70 71 70 69 69 72 72 69 67 64 62 59 57 55 54 53 53 52 51 50 49 49 48 48 48 48 48 47 45 45 45 42 43 42 41 41 40 39 38 39 46 49 52 51 46 47 46 44 47 46 43 44 43 42 40 39 37 36 38 37 34 30 29 29 26 25 23 23 23 22 21 21 21 21 21 20 20 20 19 18 19 18 17 17 17
63 66 70 69 69 68 68 69 70 72 70 68 65 62 59 57 56 54 53 52 52 51 49 49 49 48 48 48 47 46 46 44 44 45 43 43 42 41 43 41 40 39 37 43 49 51 53 49 47 47 46 50 48 44 45 46 43 42 40 38 38 41 38 35 32 32 32 28 27 26 24 24 23 22 22 22 22 22 21 20 20 19 19 19 18 17 16 16
65 65 69 70 69 67 67 68 69 70 71 68 65 62 59 56 55 54 52 52 51 50 49 49 48 49 49 48 46 45 45 43 43 46 45 42 41 41 43 42 42 42 38 40 49 51 54 54 51 50 49 53 51 45 46 47 45 44 41 40 42 43 39 35 33 33 32 29 29 27 25 25 25 24 23 23 23 22 21 20 20 19 19 19 18 17 16 15
67 64 67 69 68 67 65 66 68 69 69 68 65 62 59 56 55 53 52 51 50 50 49 49 49 49 48 48 46 46 46 43 42 45 45 40 39 40 41 41 39 42 40 38 47 52 54 57 56 52 49 53 51 45 47 47 47 45 42 43 45 43 38 35 34 34 32 30 30 28 26 27 26 25 24 24 24 22 20 20 20 20 20 19 18 17 16 15
69 66 66 66 67 67 65 64 66 67 68 67 65 62 59 56 54 52 51 51 50 49 49 49 49 49 48 47 47 46 46 46 44 44 42 38 38 39 39 39 36 38 39 36 44 51 52 57 57 51 48 52 52 46 47 48 48 46 44 45 46 42 37 35 36 35 32 32 31 30 29 28 27 26 25 25 24 22 22 22 22 22 21 18 17 17 16 14
71 68 66 64 64 65 64 63 63 64 65 66 64 62 59 56 54 53 52 51 50 49 49 49 49 48 47 47 47 46 46 47 47 45 42 38 38 39 39 38 35 35 37 36 40 46 49 54 53 49 48 52 52 48 49 50 48 46 46 48 47 42 39 37 36 35 34 33 33 32 30 28 28 27 27 26 23 24 24 22 22 22 20 19 18 17 15 14
72 69 67 65 63 63 62 60 62 62 61 64 64 62 59 56 54 53 52 51 50 49 49 49 49 48 48 47 46 45 45 45 46 46 44 40 37 37 37 37 35 35 36 37 39 42 46 49 49 48 49 52 53 51 50 52 49 47 48 49 47 43 40 38 36 36 36 35 34 33 31 30 29 28 27 26 24 25 25 23 23 22 20 19 18 17 16 15
74 71 70 67 63 64 61 56 61 63 60 61 63 62 59 56 53 52 51 51 50 49 49 49 49 50 49 49 47 45 45 46 45 47 46 43 39 36 36 36 35 35 36 35 36 39 43 46 47 47 47 51 54 51 51 53 50 49 51 49 47 44 41 40 38 38 38 37 36 35 33 32 30 28 28 26 26 28 26 24 24 23 21 20 19 18 17 16
74 72 71 67 63 65 63 55 58 64 62 61 61 61 60 56 54 53 52 52 51 50 49 48 48 50 50 48 45 42 44 45 45 46 46 45 44 40 38 37 36 36 38 36 34 35 40 43 45 46 46 50 54 52 52 54 52 52 52 50 47 45 43 42 41 41 41 39 38 36 35 34 30 28 29 28 29 30 28 26 25 24 22 21 20 19 18 17
73 72 71 69 65 65 64 57 57 61 61 62 61 60 59 56 55 55 52 51 53 52 50 49 48 49 50 48 44 41 42 42 42 44 45 45 45 44 41 40 39 39 41 42 38 33 34 40 44 45 45 48 53 53 53 54 53 53 53 51 49 47 46 43 42 43 43 41 39 38 38 35 31 30 31 31 31 31 29 27 26 25 24 22 21 20 19 18
73 72 72 71 68 66 66 62 58 58 59 60 61 60 59 56 56 57 53 50 52 52 51 50 50 49 50 48 43 42 43 42 41 43 45 45 44 44 44 42 42 41 41 44 44 38 32 34 41 45 44 47 52 52 53 54 54 53 52 51 50 49 48 45 44 44 43 42 40 40 39 35 32 34 35 33 33 32 30 29 27 26 25 24 23 22 21 20
73 74 73 72 70 68 67 66 61 59 60 60 59 60 59 58 58 58 57 52 50 52 51 51 51 50 49 47 43 43 45 42 40 42 44 43 42 44 44 44 43 43 42 43 44 43 37 32 36 43 44 47 51 52 53 56 56 53 51 51 51 50 49 47 46 46 45 43 41 40 39 36 36 38 36 34 33 33 31 30 29 27 27 25 24 24 23 22
74 74 74 71 70 69 67 67 63 60 60 60 59 59 60 60 59 59 59 56 52 52 51 49 50 50 48 46 45 45 45 43 41 41 42 41 41 43 43 43 43 43 43 42 42 43 41 35 34 40 44 46 50 53 54 57 58 55 52 52 52 52 50 49 48 48 47 45 43 42 40 37 38 39 37 35 34 34 32 32 31 29 28 26 26 25 24 23
76 76 74 69 69 70 68 67 65 63 62 61 60 60 61 61 60 60 60 59 56 53 51 50 49 48 48 46 45 45 43 42 42 43 42 40 41 42 43 43 42 41 41 42 41 40 41 39 35 38 43 47 51 54 55 57 60 58 55 54 53 53 52 50 49 49 48 47 45 43 40 39 40 39 38 37 35 35 34 33 32 31 29 28 27 26 24 23
79 77 76 70 67 68 69 66 64 67 68 65 62 62 63 63 63 62 62 61 58 55 52 51 49 47 47 47 45 44 42 42 43 44 43 42 42 43 43 43 41 40 39 39 40 39 40 39 37 37 42 47 51 55 56 57 59 59 57 55 54 54 53 52 51 50 49 48 46 44 41 40 40 39 38 37 36 36 36 34 34 32 30 29 28 26 25 23
83 78 78 73 68 68 70 66 61 69 74 70 66 65 64 65 64 63 63 63 60 58 55 53 51 49 48 45 43 42 42 43 44 45 45 44 44 44 43 43 42 40 39 38 39 39 38 38 37 37 40 46 51 55 56 56 58 60 58 56 55 55 55 53 51 51 50 49 47 44 42 40 40 40 39 38 37 38 38 37 36 34 32 30 29 27 25 24
88 81 79 75 71 71 71 64 57 65 74 73 70 68 67 67 66 65 64 63 61 59 57 52 51 50 46 43 42 44 44 45 46 46 46 44 43 44 44 44 42 41 40 38 38 38 38 37 37 36 37 42 49 53 55 57 59 59 57 55 54 54 54 53 51 50 50 49 48 45 43 41 41 41 40 39 39 39 40 39 37 34 32 30 28 28 26 25
92 84 80 75 72 75 75 65 55 61 72 72 70 70 70 70 68 67 64 62 60 57 55 50 48 49 46 44 45 47 47 47 47 47 46 44 43 44 43 42 41 41 38 35 35 37 37 37 35 33 32 36 47 55 58 60 59 58 56 54 53 53 52 52 50 49 49 49 48 46 44 43 43 43 42 42 42 42 41 39 36 34 32 30 28 28 27 26
93 88 83 76 72 76 80 70 56 60 68 66 66 68 68 68 65 62 59 60 60 57 56 52 50 50 48 47 47 46 46 47 47 48 48 46 44 43 42 42 41 39 35 32 32 34 35 35 33 30 28 35 50 58 60 60 58 57 57 55 53 53 53 52 51 50 50 50 48 47 47 45 45 44 44 44 44 42 40 37 35 34 32 31 30 29 28 27
92 90 88 81 74 75 81 75 58 58 66 64 65 65 61 61 59 56 55 58 60 59 59 58 54 51 50 49 48 47 48 48 47 48 49 49 47 44 42 42 40 37 34 32 31 32 32 32 30 28 29 40 55 61 60 58 56 56 56 55 53 54 55 53 52 51 50 50 49 49 48 47 46 45 46 46 43 40 38 37 35 35 34 33 31 30 30 28
87 88 90 87 79 73 75 76 62 58 67 66 64 64 60 57 56 56 57 59 61 61 61 59 56 53 51 50 50 52 54 51 48 48 49 50 48 45 43 41 38 37 35 34 33 32 31 28 27 29 32 43 56 61 60 58 56 55 54 53 52 54 55 52 50 50 50 49 49 49 49 48 47 47 47 46 43 39 38 37 37 37 36 33 33 32 31 29
83 85 89 89 84 76 71 71 62 58 67 68 64 65 63 60 60 61 62 62 63 62 62 60 58 56 54 53 53 56 57 52 48 48 49 49 47 44 42 38 36 37 36 34 33 33 30 26 26 29 33 41 54 62 61 59 58 56 54 53 52 51 51 49 48 49 49 50 49 50 51 50 49 48 47 45 43 41 40 40 38 38 37 35 35 33 31 30
82 84 88 89 87 80 72 68 59 56 68 70 67 68 66 65 65 66 65 64 64 64 64 64 62 60 60 59 53 52 53 50 48 47 47 46 43 41 38 35 34 34 34 33 33 33 31 27 27 30 32 38 50 61 62 60 58 55 53 53 50 48 46 46 47 48 49 49 49 50 52 51 49 49 47 45 46 44 43 43 40 38 38 36 35 33 31 31
80 85 87 87 87 84 78 71 57 54 68 72 68 68 69 68 69 69 68 66 66 67 66 65 64 63 64 62 52 47 49 48 47 47 45 43 40 38 35 33 33 32 32 32 32 33 31 29 29 31 33 35 45 58 62 61 58 53 52 51 49 47 45 45 47 48 49 49 49 50 53 53 50 49 48 47 48 47 44 43 41 39 39 38 35 33 32 32
78 84 87 85 86 87 81 70 56 54 67 71 69 70 71 71 71 71 70 70 70 69 67 66 65 63 63 62 55 48 47 46 47 48 46 44 42 39 37 35 33 32 32 32 32 33 32 31 31 32 34 35 40 52 61 61 58 55 52 49 48 48 46 45 47 48 49 50 50 51 53 55 52 49 49 49 49 48 45 43 41 39 39 38 36 34 33 32
79 81 85 84 85 86 76 63 53 54 65 70 70 71 72 73 74 73 73 75 75 71 68 66 65 64 63 61 57 50 45 44 46 49 47 45 43 41 39 36 33 32 32 33 32 31 31 31 31 32 34 35 36 47 59 62 59 57 52 47 47 48 47 46 46 46 48 50 52 52 53 57 55 50 50 51 50 48 45 42 41 40 39 38 37 35 34 32
80 78 81 82 84 85 78 65 54 55 68 74 73 74 75 76 76 75 75 78 77 72 69 67 67 67 64 60 56 50 46 45 46 46 46 45 43 41 39 36 33 32 33 33 32 32 31 30 30 31 32 33 35 45 58 61 59 56 52 47 46 47 48 47 46 46 47 51 53 53 53 57 57 52 51 52 51 48 44 42 42 41 39 38 36 34 34 33
80 77 80 82 82 84 82 74 62 58 69 76 76 76 77 79 79 78 79 81 78 73 70 69 69 69 63 57 53 50 47 48 47 46 46 45 42 40 38 36 34 33 34 34 34 34 33 31 31 32 32 33 36 44 55 60 60 57 53 51 48 47 48 47 46 46 48 53 54 53 54 56 58 55 52 52 51 47 44 43 43 41 39 38 35 34 33 33
79 77 78 80 81 84 82 75 66 60 66 75 78 78 79 80 80 81 82 80 77 74 73 71 69 68 62 56 53 51 48 48 49 49 48 46 44 42 41 39 37 37 36 36 37 36 35 34 34 34 33 34 37 42 51 58 61 59 56 54 50 49 49 47 46 47 50 55 55 54 55 57 60 57 53 52 50 47 45 43 42 41 40 38 36 35 34 33
78 78 76 76 80 84 80 71 64 60 64 72 79 80 80 82 83 82 81 79 77 76 74 70 67 65 61 54 52 52 50 50 51 51 49 47 45 44 43 42 40 39 38 38 38 38 37 36 35 34 34 35 37 41 48 55 61 61 59 56 53 51 51 50 48 48 51 55 54 54 55 58 62 59 53 51 49 45 44 43 41 40 40 38 37 36 36 35
77 75 72 74 80 84 81 71 66 64 65 73 80 81 81 83 84 81 79 78 78 75 71 68 64 62 60 56 54 54 52 50 51 51 49 46 45 43 41 40 38 37 35 34 35 36 37 37 36 35 34 35 37 40 45 51 59 62 61 57 54 53 54 52 50 49 51 52 52 53 55 58 61 58 53 51 48 45 44 43 42 40 40 39 38 38 37 36
75 73 72 74 77 81 81 73 68 65 65 74 82 81 81 83 82 79 78 79 77 72 70 68 63 59 58 57 56 56 55 54 52 50 49 48 46 44 42 39 37 36 34 33 34 34 35 35 35 35 33 33 35 38 42 49 54 57 56 52 50 50 51 51 49 47 48 49 49 51 54 58 60 57 52 49 48 46 44 43 42 42 41 41 40 39 39 38
72 70 71 76 77 78 78 74 70 66 65 75 83 83 83 83 80 78 78 79 77 73 69 65 61 59 57 56 55 55 56 56 54 51 49 47 45 44 43 41 40 39 38 37 37 37 36 35 33 33 31 31 34 37 41 47 52 54 54 52 50 51 50 49 49 48 47 48 50 52 55 57 57 56 52 47 47 47 46 45 44 43 43 42 42 41 41 40
70 69 69 74 79 79 77 74 71 68 68 76 83 85 83 81 79 79 78 77 77 74 69 63 59 58 57 56 55 55 54 53 53 52 50 48 46 45 44 43 41 39 38 37 37 37 37 35 34 32 32 32 34 38 41 45 50 54 56 57 55 52 49 48 49 50 49 50 52 53 55 55 54 55 52 47 46 47 46 45 44 44 44 43 42 42 42 42
71 72 72 73 78 81 78 73 72 71 73 78 83 84 81 79 79 78 78 77 76 74 70 65 61 59 58 56 55 55 55 55 54 53 51 49 48 47 46 45 41 39 37 36 35 35 34 34 33 32 32 33 34 37 41 44 48 52 55 57 54 50 48 48 48 50 51 53 55 56 55 55 54 55 53 48 45 45 44 44 44 43 44 44 43 43 43 43
71 73 76 77 79 79 76 73 74 75 77 79 82 81 80 80 80 78 77 76 75 73 68 63 61 60 59 57 56 56 57 58 58 57 54 52 49 46 45 44 41 40 39 37 36 36 34 33 34 33 33 34 36 38 40 43 46 49 52 55 54 51 51 51 51 52 53 55 57 58 57 56 55 55 52 48 45 43 43 44 43 43 43 44 45 44 44 43
75 75 78 79 77 76 76 77 78 79 80 82 82 81 80 81 80 77 75 73 72 71 67 62 59 59 59 59 58 58 59 59 59 58 56 54 50 47 44 42 41 39 39 39 38 37 35 35 36 35 35 36 38 40 41 43 44 46 49 52 54 55 55 53 52 53 54 56 58 59 59 59 57 54 51 47 44 41 41 42 42 43 43 44 45 45 44 44
77 76 77 76 75 76 79 80 80 81 82 82 82 82 81 78 76 75 74 72 70 70 67 63 61 60 60 61 60 59 58 58 57 56 54 52 50 47 44 43 41 40 39 39 39 38 36 35 37 38 38 39 39 40 41 43 44 44 45 48 51 54 56 55 54 55 55 56 59 62 63 62 58 53 50 48 44 40 39 40 41 42 43 44 44 45 45 45
77 76 76 77 78 80 81 82 82 82 81 81 80 81 80 78 76 74 73 71 69 68 66 63 62 61 60 61 61 59 56 54 53 52 51 49 47 45 43 41 40 40 41 40 39 38 36 35 37 39 39 39 39 39 40 42 43 43 43 45 45 48 51 52 54 56 56 57 58 61 64 64 60 55 52 50 47 43 41 40 40 41 42 43 43 43 44 44
75 75 76 78 80 80 80 80 81 81 80 81 81 81 80 78 76 74 72 70 67 66 64 60 59 58 58 57 57 56 54 52 50 49 48 46 44 41 40 39 38 37 39 39 37 36 35 34 36 39 40 40 39 39 41 42 44 45 45 45 45 47 48 49 51 52 53 55 55 57 62 64 61 56 54 53 50 47 44 42 41 40 41 41 42 42 43 43
76 77 77 79 79 78 78 79 80 81 82 82 81 80 79 78 75 73 72 70 67 66 64 59 57 56 55 54 53 52 50 48 47 45 44 42 41 40 39 38 37 36 37 36 36 36 35 35 36 37 39 40 40 41 42 42 44 46 47 47 48 49 48 48 49 49 49 51 52 54 60 63 59 55 55 55 54 51 48 46 43 42 41 42 42 43 44 44
80 81 80 79 77 78 79 80 79 80 83 83 81 80 79 77 74 72 71 70 68 67 63 59 57 54 54 54 53 50 47 45 44 43 42 40 38 39 38 36 36 36 35 34 34 35 35 37 37 37 39 42 43 43 44 44 46 47 47 49 50 50 49 49 48 48 50 51 50 53 57 56 53 52 54 55 55 54 52 51 48 45 44 44 44 45 46 47
83 81 79 78 79 79 80 79 78 80 83 84 82 80 78 76 74 72 71 70 68 66 61 57 56 54 54 55 52 50 47 44 43 42 41 41 38 38 38 36 35 35 34 33 34 34 35 36 36 37 40 41 41 40 42 44 46 46 45 45 47 48 50 50 50 51 52 51 51 54 51 45 45 48 50 51 53 53 53 53 52 50 48 47 47 48 49 50
85 82 79 79 80 79 79 79 79 80 82 83 82 80 78 76 74 73 72 70 67 64 59 56 55 55 55 55 53 51 47 46 45 42 41 42 41 40 40 38 36 35 35 35 36 36 37 37 37 38 39 39 38 37 37 40 44 44 43 44 45 46 48 50 52 53 51 51 54 53 46 39 39 43 47 49 50 50 51 52 53 53 53 51 51 52 52 53
83 81 78 77 79 79 79 80 81 80 79 80 80 80 78 76 75 74 73 70 67 63 59 56 55 55 55 55 54 51 48 47 47 45 43 43 42 41 41 40 39 37 36 36 37 38 39 40 39 38 39 39 39 39 39 40 42 44 45 46 47 48 49 51 53 52 51 53 52 45 41 39 35 38 46 48 48 49 51 52 53 54 55 55 55 55 54 54
77 74 73 73 74 75 77 78 78 78 78 78 78 78 78 76 75 74 73 71 67 63 60 58 56 55 54 53 53 51 49 48 48 47 46 46 44 43 43 42 41 39 39 39 39 39 41 41 40 39 39 39 39 41 42 43 44 46 47 48 48 49 51 53 54 52 52 54 46 38 43 44 35 36 44 46 48 51 51 53 55 55 56 57 57 57 56 56
69 69 70 72 71 72 73 74 75 77 79 79 78 78 76 75 74 73 72 70 67 64 61 60 58 56 55 53 51 51 50 51 51 50 49 48 47 46 45 44 42 40 40 40 40 40 41 41 41 40 40 39 39 41 42 43 45 45 47 47 47 49 51 52 52 50 53 55 46 42 50 47 34 35 42 44 47 50 50 52 56 57 58 58 58 58 58 56
66 67 68 69 70 70 72 74 75 77 79 79 79 77 74 72 71 70 70 68 65 64 62 61 59 57 55 54 53 51 50 50 50 50 50 49 48 46 45 45 43 41 40 40 41 41 41 41 41 40 40 41 40 40 41 42 42 43 45 46 47 48 50 51 50 50 54 56 50 49 52 41 29 36 44 44 46 49 50 53 55 56 57 57 58 58 57 54
66 66 66 67 69 70 71 72 74 76 79 79 77 76 74 72 70 69 68 65 63 62 61 61 60 57 55 55 53 51 49 47 46 45 44 44 43 42 41 40 40 39 38 39 40 39 39 39 39 38 40 40 38 39 41 42 42 44 45 44 44 47 49 49 49 49 51 51 49 51 47 33 30 40 44 41 44 49 51 52 52 53 54 55 56 56 54 51
66 67 67 67 68 69 71 72 73 75 76 75 75 75 74 72 70 69 67 64 62 61 59 58 58 56 55 54 53 50 48 46 45 43 42 40 39 38 37 37 37 37 37 37 38 39 39 39 39 40 41 41 40 41 41 42 45 46 43 41 42 44 46 47 47 48 48 48 50 51 43 35 38 44 41 39 45 49 50 49 49 50 51 52 54 53 50 49
Wind_Direction
215 218 219 218 217 216 218 218 218 220 220 220 221 221 220 221 222 221 220 219 219 219 219 219 220 222 224 226 228 228 229 229 228 229 229 234 236 237 239 238 240 238 223 214 212 211 208 206 205 209 215 216 213 206 203 206 207 206 207 207 208 210 211 212 207 202 206 206 205 205 207 203 194 189 186 184 181 177 174 172 172 169 168 165 160 158 155 153
212 215 217 217 218 217 218 219 219 220 220 221 221 221 220 220 222 221 221 220 219 219 218 219 220 221 224 226 228 228 229 228 228 229 229 232 235 236 240 239 240 240 227 216 213 211 208 206 206 209 218 219 212 206 203 205 207 207 208 208 208 211 211 210 206 203 206 206 205 206 207 205 199 193 187 185 182 179 177 174 173 171 171 168 162 163 161 159
210 212 214 215 217 216 218 219 219 220 220 221 221 221 221 220 221 221 220 220 219 219 218 219 220 221 223 226 228 229 230 228 228 230 230 231 234 236 239 240 240 240 230 219 215 212 210 208 208 209 219 221 213 206 205 204 206 207 208 208 209 212 211 207 204 204 207 204 204 206 206 206 201 194 189 187 183 180 178 176 176 173 174 172 166 169 167 163
210 210 212 214 215 215 217 219 220 220 219 220 220 220 220 219 220 221 220 219 219 219 218 218 220 221 223 225 228 230 230 229 228 232 232 231 233 234 237 240 240 240 234 223 217 213 210 209 208 209 219 223 215 208 207 205 205 207 207 207 210 214 212 206 202 205 208 203 203 206 205 206 202 196 191 187 184 181 180 180 178 175 178 176 172 173 171 169
212 210 210 212 213 214 216 219 220 220 219 220 220 220 220 219 219 220 218 218 219 218 218 218 219 221 222 225 227 228 228 228 228 231 232 231 231 233 237 240 242 241 240 229 218 214 211 210 211 213 220 223 218 211 207 205 205 206 205 206 211 214 212 207 205 207 208 204 205 205 205 207 203 197 193 188 185 184 182 183 182 180 183 182 177 176 175 174
212 212 211 210 211 211 212 216 219 220 220 220 220 219 219 218 218 218 217 217 217 217 217 217 219 220 222 224 225 226 226 226 226 229 230 231 232 233 236 238 242 240 240 234 220 216 214 212 216 218 218 221 220 213 207 205 205 205 203 207 213 214 210 208 208 209 208 206 207 206 205 207 204 199 195 190 188 186 185 189 189 186 187 183 180 179 179 179
207 210 211 210 210 210 210 214 217 218 219 219 219 219 218 217 216 216 216 215 215 216 216 217 218 220 221 223 225 226 226 225 226 229 230 231 232 233 235 237 241 239 237 237 222 217 217 215 218 217 215 220 220 213 206 205 206 203 203 208 213 212 209 208 209 210 208 208 208 207 206 206 204 202 197 193 192 191 191 194 193 190 188 186 186 186 185 184
205 207 210 210 209 209 210 215 218 218 219 219 218 218 217 216 216 215 214 214 213 214 215 216 217 219 220 222 224 226 227 227 227 229 230 230 231 232 235 236 241 239 237 240 226 217 217 216 216 214 214 219 219 213 206 204 205 203 203 208 211 210 208 209 210 211 210 209 210 209 208 207 205 203 199 195 195 195 195 196 197 194 190 191 193 191 190 189
205 207 209 209 208 206 207 214 218 218 218 218 217 216 216 215 215 215 214 214 212 212 214 216 217 217 219 220 222 224 226 227 227 230 230 229 229 231 234 236 241 242 240 242 232 219 216 214 213 212 214 217 217 213 206 202 203 203 205 208 209 208 207 208 211 213 213 211 212 212 209 208 207 204 200 198 199 197 195 197 201 200 195 196 197 195 196 196
203 206 207 207 208 206 203 209 217 219 217 216 217 215 215 213 211 213 214 214 212 211 213 215 216 217 218 219 221 223 224 226 227 229 230 229 230 232 235 238 241 242 240 241 234 223 217 213 211 210 212 215 215 213 207 202 201 203 207 208 208 206 206 208 210 213 216 213 213 213 212 210 207 205 203 201 201 199 196 198 203 203 200 200 200 200 202 203
199 202 204 204 206 206 203 206 213 217 217 215 216 215 214 211 207 209 213 214 212 210 212 212 214 217 218 219 220 221 224 226 226 229 230 229 231 234 237 239 241 241 239 239 236 228 222 217 213 211 211 213 215 214 208 202 200 203 206 207 207 206 205 208 210 212 215 214 213 214 215 212 207 206 206 205 204 202 199 200 203 205 203 203 204 206 208 210
195 196 200 201 203 203 203 208 213 214 215 215 215 213 212 210 206 206 209 212 211 210 210 210 211 214 216 217 216 215 220 223 224 227 229 227 229 233 237 239 240 241 240 241 241 235 229 224 217 214 213 213 215 215 210 203 201 204 206 206 206 205 205 208 211 214 216 215 212 213 216 213 207 209 210 208 207 205 203 202 202 205 207 207 208 211 214 217
193 194 197 200 202 202 201 207 213 213 213 212 211 211 209 206 205 205 205 208 209 209 210 210 211 213 215 215 212 212 217 219 220 225 229 227 227 230 233 237 238 240 241 242 243 240 237 231 222 219 216 214 215 216 213 205 201 205 206 205 205 205 205 207 210 214 217 217 215 214 216 213 209 212 212 210 210 208 206 205 204 206 209 211 213 217 219 222
193 194 197 199 201 203 203 205 211 212 211 209 207 207 206 204 205 204 204 206 208 209 210 211 214 214 215 213 209 211 215 217 219 224 230 228 226 228 231 234 236 239 240 242 243 241 239 236 228 224 219 215 215 217 215 206 201 204 207 206 206 206 205 207 209 213 216 217 217 216 217 214 213 216 214 212 213 212 209 209 208 208 212 214 218 222 224 226
193 194 196 199 199 202 204 205 209 211 211 209 206 205 204 203 204 204 203 205 206 208 209 211 214 214 213 211 208 211 215 216 218 222 228 227 225 227 229 232 234 237 240 240 241 241 239 237 233 227 221 217 215 216 215 209 203 203 205 206 207 207 206 207 210 213 215 216 216 217 216 215 217 218 216 215 216 216 214 214 213 213 215 217 221 225 229 231
195 195 195 196 197 198 201 203 208 212 212 210 207 204 203 202 203 203 202 203 204 207 208 208 212 213 212 209 209 212 214 215 217 221 226 226 225 226 227 230 233 236 239 239 239 239 237 236 235 228 222 217 216 216 216 212 206 203 204 206 208 208 208 209 211 213 216 217 217 217 215 216 220 221 218 217 218 219 219 218 219 218 219 221 224 228 232 235
197 195 195 194 195 195 196 199 205 211 213 212 207 203 203 202 201 201 202 202 202 205 207 206 207 211 211 209 210 213 214 215 218 221 224 224 224 226 227 229 232 236 239 240 239 238 236 235 236 231 223 218 217 216 216 215 209 204 205 206 208 209 209 210 211 213 216 217 218 218 216 217 221 223 221 220 220 222 223 222 223 223 223 225 227 230 233 236
201 196 195 195 196 195 194 197 201 206 208 208 204 202 202 201 200 200 201 202 202 203 204 204 203 207 211 210 211 213 213 215 217 219 221 222 223 224 226 229 231 235 238 240 239 237 236 234 236 234 226 220 218 217 217 217 211 205 205 206 208 210 210 211 211 212 215 217 218 218 216 217 222 224 223 222 222 224 226 225 225 226 227 228 229 232 233 234
208 199 195 194 197 197 194 195 197 200 203 201 198 199 201 199 199 200 201 202 203 204 206 208 207 208 210 209 209 210 212 214 215 217 219 221 222 223 226 228 230 234 237 238 236 235 234 233 235 235 231 225 221 220 218 213 206 203 205 207 209 210 211 212 212 213 214 216 218 217 216 217 221 223 224 224 224 225 226 227 227 227 230 231 231 232 232 232
214 205 197 193 195 198 198 198 195 196 200 198 197 199 200 199 198 199 200 201 203 205 207 210 210 210 209 207 208 209 211 213 214 216 218 220 220 221 223 225 227 231 233 234 233 233 232 233 234 235 236 231 223 219 214 206 201 202 205 208 209 211 212 213 213 214 215 217 218 218 216 216 220 222 223 224 225 225 227 228 228 229 231 233 232 233 233 233
218 212 203 196 195 197 201 203 196 193 199 200 202 203 205 205 203 204 204 203 202 203 205 206 207 209 209 207 207 210 213 215 215 216 216 218 219 219 220 222 224 228 230 231 232 233 232 232 233 235 238 231 219 213 207 201 199 202 205 208 209 211 212 212 212 214 216 217 218 219 217 216 220 223 224 225 226 226 228 229 230 230 231 232 232 233 234 235
220 218 211 204 199 197 201 204 198 194 199 202 202 201 204 205 204 206 206 205 204 204 204 203 204 206 208 207 206 209 214 215 215 216 217 218 220 221 223 223 224 229 233 234 235 237 235 234 234 235 234 225 214 207 202 199 199 202 206 208 209 211 213 212 211 213 215 217 218 220 219 217 220 223 225 227 227 227 229 229 231 232 231 231 232 233 234 235
220 220 218 212 206 202 200 202 201 197 198 201 200 196 197 199 199 200 202 204 206 205 205 204 203 203 206 208 208 210 213 214 214 217 219 220 221 222 225 227 229 235 239 239 240 240 238 238 237 234 231 223 213 205 201 199 200 202 206 209 210 213 214 213 212 212 215 217 218 220 221 219 220 223 225 228 228 227 230 229 229 232 232 230 232 233 234 236
221 220 220 217 213 209 203 200 201 199 196 197 197 194 194 196 197 198 199 203 205 205 206 205 204 203 204 208 212 213 211 210 213 216 219 223 225 226 229 233 234 238 240 239 239 237 236 236 236 235 233 226 216 208 201 199 201 203 207 210 211 214 217 215 213 213 215 217 218 221 222 220 220 223 225 228 230 228 230 230 229 232 233 231 232 233 234 236
220 220 220 219 217 215 210 202 200 197 194 195 193 191 193 195 197 197 199 203 205 205 206 205 204 205 204 207 213 213 207 206 210 215 218 222 227 229 230 232 232 235 237 235 234 233 233 233 232 234 235 230 221 212 204 201 202 204 208 211 212 214 217 217 215 215 217 219 219 222 225 222 220 224 225 227 230 228 228 230 229 230 233 233 233 234 235 236
219 219 219 220 219 218 215 206 201 198 194 194 193 191 193 196 198 197 198 203 205 205 206 206 206 207 207 210 215 210 202 203 209 214 218 220 222 224 225 228 229 232 232 231 233 232 232 233 231 233 234 233 226 216 208 204 204 205 209 213 214 214 216 217 216 216 217 219 220 223 227 225 221 223 225 225 229 230 228 229 229 229 233 234 234 234 234 235
218 218 218 220 220 219 215 208 204 203 197 195 193 192 193 196 199 198 198 204 206 205 206 206 206 207 209 214 219 214 205 205 209 211 216 218 218 218 220 224 226 228 229 230 233 233 233 233 232 232 233 232 229 221 212 207 206 206 209 214 215 215 216 217 216 217 217 219 221 222 226 228 223 221 225 226 228 231 229 229 230 230 232 234 233 232 233 234
217 217 218 219 220 219 214 207 206 203 198 197 195 193 194 197 199 198 199 206 207 204 205 205 205 207 211 216 218 214 207 206 210 212 214 216 217 217 218 220 221 224 228 230 232 234 236 236 235 236 235 234 232 224 215 210 209 208 210 215 216 216 218 219 218 219 220 220 222 223 226 229 226 221 225 228 228 230 231 230 231 231 231 232 233 233 233 234
215 216 216 217 218 217 214 209 208 204 199 199 196 193 195 198 199 198 200 207 208 205 205 206 206 209 214 216 213 210 205 206 211 215 215 216 216 216 217 217 218 221 225 228 230 232 234 236 237 238 239 238 234 225 217 213 212 211 212 216 217 217 220 222 221 221 222 222 222 224 227 230 229 222 224 229 229 230 231 231 232 231 230 230 232 234 236 237
213 214 215 215 216 217 214 210 210 207 202 198 196 196 197 198 199 199 202 206 206 205 206 207 208 212 216 216 211 208 207 208 212 214 215 216 216 216 216 215 216 219 223 225 228 230 232 233 234 235 237 237 233 226 219 216 215 214 214 217 218 219 221 224 225 223 224 223 222 224 227 231 231 225 223 228 231 230 230 231 233 233 231 231 232 235 238 240
211 212 214 215 216 217 214 209 207 207 204 200 197 198 199 199 200 201 203 203 203 205 206 206 208 211 215 217 213 209 209 211 213 215 216 215 215 216 216 216 215 217 220 224 227 230 231 233 234 233 233 233 232 228 223 219 217 217 217 218 219 220 222 225 227 226 225 223 222 225 228 231 232 228 224 227 230 232 231 231 232 234 235 234 234 235 237 240
209 211 213 214 217 217 213 208 206 205 204 202 201 201 200 199 202 203 203 202 203 205 205 205 208 211 214 217 213 210 212 213 214 217 218 218 217 216 217 219 219 220 222 225 227 228 230 232 235 234 233 232 232 229 225 222 220 219 219 219 220 222 223 225 228 228 225 224 224 226 228 231 232 230 227 227 229 232 233 233 231 233 236 237 237 237 238 239
208 210 212 213 216 216 211 209 209 209 206 203 204 203 201 201 203 203 203 203 203 203 203 206 209 211 216 216 210 208 211 214 216 218 218 219 220 220 220 221 222 224 228 231 234 234 233 234 235 235 233 233 232 230 228 226 223 221 220 220 221 223 224 226 229 230 228 226 227 229 231 231 232 233 231 228 230 232 233 235 233 232 235 237 239 240 241 242
207 208 210 212 215 215 211 209 212 213 208 204 204 204 202 203 203 202 203 204 204 203 203 206 209 212 216 214 209 206 208 211 215 217 219 219 219 218 219 220 220 222 225 229 234 238 239 240 241 241 238 236 235 233 230 228 226 223 223 223 224 226 227 229 232 234 232 232 232 232 233 232 232 235 234 230 232 233 234 235 234 234 235 236 239 241 243 244
203 205 209 213 215 213 211 210 212 215 213 207 205 203 202 202 201 202 204 204 204 203 202 206 211 213 211 209 207 208 209 211 212 214 217 219 220 219 218 218 217 219 220 222 226 230 233 236 239 242 243 242 238 235 232 229 227 226 225 225 226 227 229 231 233 234 235 235 235 234 234 232 232 236 237 233 232 234 236 236 235 236 236 237 239 241 244 246
197 200 205 212 214 211 210 211 214 217 217 210 205 203 202 202 202 204 205 204 204 203 202 205 209 208 206 205 205 207 210 212 214 215 214 214 218 219 219 220 218 219 222 224 227 230 233 234 234 234 237 239 237 235 233 231 229 229 228 228 228 228 230 232 234 235 236 236 236 234 234 233 234 238 239 237 234 235 238 239 239 238 238 239 240 242 244 247
195 199 203 208 211 210 210 212 215 215 213 208 205 203 202 202 204 205 206 206 205 204 205 207 207 204 204 206 207 207 209 211 213 216 216 215 215 216 217 220 219 220 223 226 229 232 236 240 239 236 236 236 236 236 236 234 233 233 232 231 231 231 231 233 235 237 237 237 236 235 234 233 235 237 239 240 238 237 239 241 242 243 242 242 242 243 244 246
196 202 206 208 209 210 211 212 212 211 208 204 202 203 203 202 204 206 207 207 207 206 207 208 208 205 206 208 209 209 210 210 212 213 214 215 215 215 217 219 219 219 222 225 229 230 231 236 238 237 236 235 234 235 236 236 236 236 236 235 234 234 234 234 236 238 238 239 238 236 235 235 235 236 239 242 244 241 240 242 244 246 246 245 245 246 247 248
198 202 206 208 208 210 211 211 209 207 204 202 200 200 202 204 204 205 207 208 209 209 208 208 209 209 208 208 210 211 211 211 213 214 213 213 213 214 217 219 220 220 221 224 227 228 228 231 234 234 234 233 232 233 234 236 236 237 236 236 236 237 237 237 238 239 240 241 241 239 238 236 235 237 240 243 246 246 245 244 245 247 247 248 249 249 250 250
201 204 206 205 205 207 208 207 206 204 202 202 201 200 202 205 206 206 208 209 210 211 209 207 207 209 211 211 210 212 213 213 214 215 215 215 214 213 214 217 218 218 222 225 227 229 228 229 232 233 232 232 232 234 235 236 238 239 240 240 239 240 240 240 241 241 242 243 243 242 241 238 236 239 242 244 247 249 249 248 247 248 249 250 250 251 252 253
201 204 204 204 204 206 206 203 202 202 202 202 201 201 202 204 206 208 209 210 211 212 210 208 208 209 211 212 212 213 213 214 216 217 217 217 217 216 215 217 217 217 222 225 226 228 229 228 231 233 233 233 234 236 237 237 238 240 242 244 244 244 244 244 244 244 244 246 246 246 245 241 239 241 243 246 248 249 250 250 250 251 251 251 252 253 254 255
200 201 202 203 205 207 206 203 201 202 202 201 200 201 202 203 205 208 209 210 211 213 212 209 209 210 212 214 216 217 216 215 216 218 219 219 219 219 219 220 220 219 222 226 229 231 233 232 234 235 235 234 234 236 236 236 237 238 240 242 244 244 244 245 246 246 246 248 248 250 249 245 242 243 244 247 249 250 251 252 252 253 253 253 254 254 255 256
196 199 201 204 206 207 205 202 199 199 200 200 200 201 202 203 205 207 209 210 211 212 212 209 209 210 212 213 216 219 220 220 220 220 220 221 221 222 222 222 223 223 222 225 228 231 231 232 233 235 237 237 236 236 236 236 237 237 238 239 241 243 245 246 247 248 248 249 249 252 252 248 246 246 247 249 250 251 252 253 254 255 255 256 256 256 257 258
195 198 201 203 203 203 202 200 199 200 200 200 200 200 201 204 206 207 209 210 211 212 211 208 207 208 210 213 215 217 219 221 222 221 221 221 220 222 223 222 222 224 223 224 227 230 230 230 230 230 233 235 234 234 235 236 236 236 237 237 239 241 243 245 247 248 248 250 250 252 253 251 250 251 251 251 252 253 254 256 256 256 257 257 258 258 259 259
196 198 199 200 199 199 199 200 202 203 202 200 200 201 202 204 206 208 210 211 211 211 210 208 206 206 208 212 215 216 216 217 219 219 219 218 217 218 220 220 220 221 221 222 226 231 233 234 233 232 233 235 235 236 238 238 239 240 241 242 243 244 245 246 247 248 250 252 252 254 256 256 255 255 254 254 255 256 256 257 258 258 258 257 257 258 259 260
198 199 197 195 195 198 200 200 201 202 202 200 200 202 203 204 207 208 210 211 211 210 210 208 207 207 208 210 213 215 214 213 214 214 214 216 216 215 216 217 217 217 218 219 221 225 228 230 229 231 234 237 241 245 247 247 247 248 249 249 249 248 248 248 249 250 253 256 256 257 260 259 255 256 257 257 257 258 258 258 258 258 258 258 257 257 258 260
200 201 201 198 197 199 200 200 200 201 203 203 203 203 203 205 207 209 210 211 211 209 208 207 208 208 208 209 211 212 212 213 213 212 211 211 212 213 215 215 215 214 215 217 219 221 225 226 226 227 230 233 237 239 239 240 242 244 244 245 245 246 247 247 248 250 253 255 256 258 261 258 252 254 258 259 258 259 259 259 259 259 259 259 260 260 262 263
201 201 202 203 204 203 202 203 204 202 202 204 206 206 205 205 207 209 210 210 210 208 207 207 207 208 209 211 212 211 210 211 213 213 213 213 212 211 212 214 214 212 212 215 218 220 224 226 227 227 228 232 236 237 235 235 237 238 240 241 241 242 243 243 245 247 248 251 258 261 259 256 253 253 257 259 259 259 259 260 261 261 261 262 263 264 265 265
203 202 201 202 204 206 205 205 206 204 202 203 206 207 208 208 209 210 211 211 210 208 207 207 206 206 208 210 212 213 212 212 214 214 215 216 215 214 213 213 213 212 212 215 217 220 223 226 228 228 229 231 234 236 237 238 238 239 240 242 243 244 244 244 245 246 247 249 255 256 253 255 259 257 255 255 257 258 259 260 260 261 262 263 264 265 265 264
205 205 204 202 201 204 205 204 205 205 203 204 206 208 209 211 211 212 213 212 211 210 209 208 207 206 208 210 211 212 213 215 218 219 219 219 218 218 217 216 215 214 214 216 218 220 223 226 229 231 233 234 236 238 241 242 243 243 242 243 245 247 248 248 248 248 248 249 251 251 252 258 265 258 254 254 256 259 259 259 259 261 262 263 264 264 263 263
205 206 206 204 202 202 205 206 206 206 205 205 207 209 210 211 212 214 215 214 213 214 213 211 209 207 209 211 212 212 212 214 217 221 224 226 225 225 226 224 224 223 222 222 223 224 227 230 233 237 239 240 241 244 245 246 248 247 245 245 247 249 250 252 253 252 253 254 255 254 256 265 268 259 256 257 258 259 260 261 262 262 262 263 263 262 261 260
204 204 204 205 204 203 204 206 207 207 208 210 210 210 210 210 212 214 216 216 215 215 215 214 212 210 210 212 213 214 215 216 217 219 222 225 227 228 229 228 229 230 230 229 229 230 231 234 236 238 241 242 243 244 247 249 249 247 247 248 250 251 252 254 255 256 258 259 258 257 260 265 264 259 255 253 253 256 258 260 261 261 261 260 259 258 257 256
Height
5665 5670 5676 5682 5687 5693 5697 5701 5706 5711 5716 5720 5725 5729 5734 5738 5741 5744 5748 5752 5755 5759 5763 5768 5772 5775 5779 5782 5785 5789 5792 5795 5797 5800 5804 5805 5806 5808 5810 5812 5815 5818 5821 5824 5826 5829 5832 5835 5838 5841 5844 5847 5849 5851 5853 5855 5856 5859 5861 5863 5866 5869 5871 5873 5876 5879 5880 5881 5882 5883 5884 5885 5886 5885 5886 5886 5888 5889 5891 5892 5893 5894 5895 5895 5896 5896 5897 5898
5658 5663 5670 5677 5682 5688 5693 5697 5701 5706 5711 5716 5720 5725 5730 5734 5737 5740 5744 5748 5752 5755 5759 5764 5768 5772 5775 5778 5781 5785 5788 5792 5794 5797 5800 5802 5803 5805 5807 5809 5813 5815 5818 5820 5823 5826 5829 5833 5836 5839 5841 5843 5847 5849 5850 5852 5854 5857 5859 5862 5865 5867 5869 5871 5874 5877 5879 5880 5881 5882 5884 5885 5885 5885 5886 5886 5887 5889 5890 5891 5893 5894 5894 5895 5896 5897 5897 5897
5653 5658 5664 5671 5677 5683 5687 5692 5696 5701 5706 5711 5716 5720 5725 5730 5734 5737 5741 5745 5748 5752 5756 5760 5764 5768 5772 5775 5778 5782 5785 5788 5792 5794 5796 5798 5800 5803 5804 5806 5810 5812 5815 5818 5821 5824 5827 5831 5834 5836 5839 5841 5844 5846 5847 5849 5852 5855 5858 5861 5864 5864 5865 5869 5872 5875 5876 5878 5880 5881 5882 5883 5884 5884 5885 5886 5887 5888 5890 5891 5892 5893 5894 5894 5896 5897 5897 5898
5648 5653 5659 5665 5671 5678 5682 5687 5692 5696 5701 5706 5711 5716 5721 5726 5730 5734 5737 5741 5745 5749 5753 5757 5761 5765 5768 5772 5775 5779 5782 5786 5789 5790 5791 5794 5798 5800 5801 5804 5807 5809 5812 5815 5817 5820 5824 5828 5831 5834 5836 5838 5840 5843 5844 5846 5849 5852 5856 5860 5861 5860 5863 5868 5870 5872 5874 5876 5878 5879 5881 5882 5883 5883 5884 5885 5887 5888 5889 5890 5892 5893 5893 5894 5895 5896 5897 5898
5645 5649 5653 5659 5666 5673 5678 5683 5687 5690 5696 5701 5707 5712 5717 5722 5726 5730 5734 5737 5742 5746 5750 5754 5758 5761 5765 5769 5773 5776 5779 5782 5785 5786 5788 5792 5795 5797 5799 5801 5804 5806 5809 5812 5813 5816 5820 5824 5827 5831 5833 5834 5837 5841 5843 5845 5847 5849 5854 5858 5857 5857 5862 5867 5869 5871 5873 5875 5876 5878 5880 5881 5881 5882 5883 5884 5886 5888 5889 5890 5891 5892 5893 5893 5894 5895 5897 5897
5641 5646 5650 5655 5661 5667 5672 5677 5682 5686 5691 5697 5702 5708 5713 5718 5723 5727 5731 5734 5739 5743 5747 5751 5754 5758 5762 5766 5769 5772 5776 5779 5782 5784 5786 5790 5792 5794 5796 5799 5801 5803 5806 5809 5811 5813 5816 5819 5823 5827 5830 5831 5835 5839 5841 5842 5844 5847 5852 5854 5853 5856 5862 5866 5868 5870 5872 5873 5874 5877 5878 5879 5880 5881 5882 5884 5885 5887 5888 5889 5889 5891 5892 5893 5894 5895 5896 5897
5635 5641 5646 5651 5657 5663 5668 5672 5676 5681 5686 5692 5698 5703 5709 5714 5719 5724 5727 5731 5736 5740 5744 5747 5751 5755 5759 5763 5766 5769 5772 5775 5779 5782 5785 5787 5789 5791 5793 5796 5798 5800 5802 5805 5807 5809 5812 5816 5819 5824 5827 5828 5831 5835 5837 5840 5842 5845 5849 5850 5851 5856 5861 5863 5865 5868 5870 5871 5872 5874 5876 5878 5879 5880 5881 5883 5884 5886 5887 5887 5888 5889 5891 5893 5894 5895 5896 5897
5629 5635 5641 5648 5653 5659 5665 5669 5672 5677 5682 5688 5694 5699 5705 5710 5715 5720 5724 5728 5732 5737 5741 5744 5748 5752 5756 5759 5762 5766 5769 5772 5777 5780 5783 5784 5786 5788 5790 5793 5795 5797 5800 5802 5804 5806 5809 5813 5816 5820 5823 5824 5828 5831 5833 5836 5840 5843 5845 5846 5849 5854 5859 5861 5863 5866 5868 5869 5870 5872 5875 5877 5878 5878 5880 5882 5883 5884 5886 5887 5888 5889 5890 5892 5893 5894 5895 5896
5624 5631 5637 5644 5650 5656 5662 5666 5669 5673 5678 5684 5689 5695 5701 5707 5713 5717 5721 5725 5729 5734 5738 5741 5746 5749 5752 5755 5759 5764 5766 5769 5774 5777 5779 5781 5783 5785 5787 5789 5792 5794 5797 5798 5801 5803 5806 5809 5812 5817 5820 5821 5824 5827 5829 5833 5837 5841 5842 5843 5847 5852 5856 5859 5862 5865 5866 5867 5868 5871 5873 5875 5876 5877 5879 5881 5882 5883 5885 5887 5887 5889 5890 5891 5892 5893 5894 5895
5619 5625 5632 5640 5647 5653 5659 5662 5665 5669 5675 5680 5685 5691 5697 5703 5710 5714 5718 5723 5727 5731 5734 5739 5742 5745 5748 5752 5757 5761 5761 5765 5770 5773 5775 5778 5780 5782 5784 5786 5789 5791 5794 5796 5798 5800 5803 5805 5808 5812 5815 5817 5820 5824 5826 5829 5834 5837 5838 5841 5845 5850 5854 5857 5859 5862 5864 5865 5867 5869 5872 5873 5875 5877 5878 5880 5881 5882 5884 5885 5886 5888 5889 5890 5891 5892 5894 5895
5614 5620 5627 5636 5642 5648 5655 5658 5661 5665 5671 5676 5681 5688 5693 5700 5707 5711 5715 5719 5724 5727 5731 5735 5738 5742 5745 5749 5756 5758 5758 5762 5766 5769 5772 5775 5777 5779 5781 5784 5786 5789 5792 5794 5795 5797 5799 5800 5804 5808 5811 5814 5817 5821 5823 5826 5830 5832 5834 5839 5843 5847 5851 5854 5856 5859 5860 5862 5865 5868 5869 5871 5874 5876 5877 5878 5879 5880 5882 5883 5885 5886 5888 5889 5890 5891 5893 5894
5607 5614 5622 5631 5637 5643 5650 5654 5657 5661 5666 5672 5678 5683 5690 5697 5703 5708 5712 5716 5720 5724 5727 5730 5733 5737 5741 5747 5753 5754 5754 5758 5761 5765 5768 5771 5774 5777 5779 5781 5784 5787 5789 5791 5792 5795 5796 5797 5801 5805 5809 5812 5814 5817 5820 5824 5827 5829 5831 5836 5840 5843 5847 5850 5853 5856 5858 5860 5863 5866 5867 5870 5874 5875 5874 5875 5877 5878 5880 5881 5883 5885 5886 5888 5889 5890 5891 5892
5601 5607 5616 5625 5631 5637 5644 5650 5654 5657 5662 5668 5674 5679 5686 5693 5699 5704 5709 5712 5716 5720 5723 5726 5730 5734 5738 5745 5749 5748 5750 5754 5757 5761 5764 5769 5772 5774 5776 5779 5781 5784 5786 5788 5789 5792 5793 5795 5799 5802 5806 5808 5811 5815 5818 5821 5824 5827 5830 5834 5837 5840 5844 5846 5849 5852 5856 5858 5861 5863 5865 5869 5872 5871 5871 5873 5875 5876 5878 5880 5881 5883 5884 5886 5887 5889 5890 5891
5595 5602 5611 5619 5626 5633 5639 5646 5650 5654 5658 5664 5670 5676 5682 5688 5694 5700 5705 5709 5713 5717 5720 5723 5727 5731 5736 5742 5744 5744 5747 5751 5755 5759 5762 5766 5770 5772 5774 5776 5778 5781 5783 5785 5787 5789 5791 5793 5796 5799 5802 5805 5808 5812 5815 5817 5821 5824 5828 5832 5834 5837 5840 5843 5845 5849 5852 5855 5859 5861 5864 5868 5869 5868 5870 5873 5874 5876 5877 5878 5880 5882 5883 5884 5886 5887 5888 5889
5590 5598 5606 5614 5621 5628 5635 5642 5647 5650 5655 5660 5666 5672 5678 5683 5690 5696 5701 5706 5710 5713 5717 5721 5724 5728 5733 5738 5739 5741 5745 5749 5754 5756 5759 5763 5766 5769 5771 5773 5775 5777 5780 5782 5784 5786 5788 5791 5793 5795 5799 5802 5805 5808 5811 5814 5817 5821 5825 5829 5831 5834 5837 5839 5842 5846 5849 5852 5855 5858 5862 5865 5865 5866 5869 5871 5873 5875 5876 5877 5878 5880 5881 5882 5884 5885 5886 5887
5586 5594 5602 5610 5617 5623 5631 5638 5644 5647 5651 5656 5662 5668 5674 5679 5685 5691 5696 5700 5705 5709 5713 5718 5721 5725 5730 5733 5735 5739 5744 5748 5751 5753 5756 5760 5763 5765 5767 5769 5772 5774 5776 5779 5781 5783 5785 5788 5790 5792 5795 5798 5801 5804 5808 5811 5814 5818 5821 5825 5828 5831 5834 5836 5839 5843 5846 5849 5852 5855 5860 5863 5862 5864 5867 5869 5871 5873 5874 5875 5877 5878 5879 5881 5882 5883 5885 5886
5581 5589 5598 5606 5613 5620 5627 5633 5640 5642 5646 5651 5658 5664 5670 5675 5680 5686 5691 5695 5701 5706 5710 5714 5719 5723 5726 5729 5734 5739 5743 5746 5748 5751 5753 5757 5759 5762 5764 5767 5769 5771 5773 5776 5778 5780 5782 5785 5787 5789 5792 5794 5797 5800 5804 5808 5812 5815 5818 5821 5824 5828 5831 5834 5837 5840 5843 5846 5850 5854 5858 5860 5860 5862 5865 5867 5869 5871 5872 5873 5874 5876 5877 5879 5880 5882 5883 5884
5576 5584 5593 5602 5608 5615 5621 5627 5632 5634 5638 5645 5652 5659 5665 5670 5675 5681 5687 5691 5697 5702 5704 5708 5714 5718 5722 5728 5734 5737 5740 5742 5744 5747 5749 5752 5756 5758 5761 5763 5765 5768 5771 5773 5775 5777 5779 5782 5784 5786 5788 5791 5794 5798 5802 5806 5810 5812 5814 5818 5821 5824 5827 5831 5834 5837 5840 5843 5847 5851 5855 5858 5859 5860 5863 5865 5867 5868 5869 5870 5871 5873 5875 5877 5878 5880 5881 5882
5570 5578 5588 5597 5603 5610 5615 5620 5624 5626 5631 5637 5644 5652 5659 5665 5671 5677 5683 5688 5694 5698 5702 5707 5713 5717 5723 5729 5732 5733 5735 5737 5739 5742 5746 5749 5752 5755 5757 5760 5762 5765 5768 5771 5773 5775 5777 5779 5781 5784 5787 5790 5793 5797 5801 5804 5806 5808 5811 5816 5819 5822 5825 5829 5832 5834 5837 5840 5843 5847 5852 5855 5856 5857 5860 5861 5863 5864 5864 5866 5869 5871 5873 5874 5876 5877 5878 5880
5564 5573 5583 5591 5598 5605 5609 5613 5616 5620 5625 5631 5637 5644 5651 5659 5665 5671 5680 5688 5694 5699 5704 5711 5714 5717 5722 5724 5725 5726 5729 5732 5735 5739 5743 5746 5749 5752 5754 5756 5759 5762 5766 5769 5771 5773 5775 5777 5780 5784 5786 5788 5791 5794 5796 5798 5800 5804 5808 5812 5815 5819 5822 5827 5830 5832 5835 5837 5840 5844 5848 5850 5851 5853 5855 5857 5858 5859 5862 5865 5867 5870 5871 5872 5873 5874 5875 5877
5558 5568 5576 5584 5592 5598 5602 5607 5612 5617 5623 5630 5637 5644 5652 5660 5666 5673 5683 5688 5691 5696 5701 5706 5710 5714 5718 5719 5721 5724 5727 5729 5733 5736 5739 5743 5746 5749 5751 5753 5757 5760 5764 5767 5769 5771 5772 5776 5779 5782 5783 5785 5786 5788 5790 5792 5795 5800 5803 5806 5811 5814 5818 5822 5826 5829 5831 5834 5837 5840 5843 5846 5847 5849 5852 5852 5854 5858 5861 5864 5866 5867 5868 5869 5870 5872 5872 5873
5553 5563 5571 5578 5586 5591 5597 5603 5610 5615 5621 5628 5637 5646 5656 5664 5672 5680 5685 5686 5688 5690 5693 5696 5702 5708 5712 5715 5718 5721 5723 5726 5730 5733 5735 5739 5743 5746 5748 5751 5755 5758 5761 5764 5767 5768 5771 5774 5777 5778 5779 5780 5780 5782 5785 5788 5792 5796 5799 5802 5807 5810 5813 5817 5822 5825 5827 5830 5833 5835 5839 5843 5844 5846 5847 5848 5852 5857 5859 5862 5863 5864 5865 5867 5868 5869 5869 5870
5548 5558 5564 5572 5581 5587 5592 5601 5608 5612 5618 5627 5637 5646 5654 5663 5670 5677 5681 5684 5685 5686 5689 5693 5699 5703 5707 5711 5715 5716 5718 5722 5727 5730 5733 5737 5740 5743 5745 5749 5752 5754 5757 5761 5764 5767 5769 5772 5773 5773 5774 5775 5776 5778 5781 5785 5788 5792 5795 5800 5804 5807 5810 5815 5820 5822 5824 5826 5829 5832 5835 5839 5841 5842 5844 5846 5851 5855 5856 5858 5860 5860 5862 5864 5865 5866 5866 5868
5544 5552 5558 5568 5576 5582 5590 5598 5605 5609 5617 5627 5634 5641 5649 5657 5664 5669 5674 5677 5679 5683 5688 5692 5696 5699 5703 5708 5711 5712 5714 5718 5723 5727 5731 5735 5737 5740 5743 5746 5747 5750 5754 5758 5761 5763 5766 5768 5769 5769 5771 5772 5773 5775 5777 5781 5785 5789 5792 5796 5801 5805 5809 5814 5818 5820 5821 5823 5826 5828 5830 5834 5838 5839 5842 5845 5848 5851 5853 5854 5856 5857 5859 5861 5861 5863 5864 5865
5540 5547 5554 5563 5572 5579 5587 5593 5600 5607 5615 5621 5627 5635 5644 5651 5657 5663 5668 5671 5674 5678 5681 5685 5691 5694 5698 5703 5705 5707 5709 5713 5718 5722 5727 5731 5734 5737 5740 5741 5743 5747 5752 5755 5757 5759 5762 5764 5766 5767 5768 5770 5772 5773 5775 5778 5782 5786 5790 5793 5798 5803 5806 5811 5815 5817 5819 5820 5823 5824 5825 5830 5835 5836 5840 5843 5843 5846 5848 5849 5853 5855 5855 5857 5858 5860 5861 5862
5536 5543 5551 5560 5568 5575 5580 5587 5596 5603 5610 5616 5623 5632 5639 5646 5652 5657 5663 5666 5668 5671 5675 5681 5687 5691 5694 5697 5700 5702 5703 5707 5713 5718 5723 5727 5730 5734 5736 5738 5742 5746 5748 5750 5752 5755 5758 5761 5763 5764 5765 5768 5770 5772 5774 5776 5780 5784 5787 5791 5795 5799 5803 5806 5810 5812 5815 5816 5819 5821 5821 5825 5831 5834 5836 5838 5838 5841 5844 5847 5850 5852 5853 5854 5856 5858 5858 5859
5532 5540 5547 5555 5562 5568 5575 5586 5594 5599 5607 5614 5621 5628 5635 5642 5648 5653 5658 5658 5659 5664 5670 5676 5682 5688 5692 5694 5697 5698 5699 5704 5709 5713 5719 5723 5727 5730 5733 5736 5739 5742 5744 5746 5749 5753 5756 5758 5760 5761 5762 5765 5768 5771 5773 5775 5777 5781 5785 5788 5792 5795 5798 5801 5804 5807 5810 5812 5814 5817 5818 5820 5826 5831 5832 5834 5835 5837 5841 5844 5847 5849 5850 5852 5853 5854 5855 5856
5528 5536 5544 5553 5562 5571 5581 5590 5596 5601 5608 5613 5619 5625 5632 5638 5643 5648 5651 5649 5650 5658 5665 5671 5679 5685 5688 5689 5691 5693 5698 5703 5706 5709 5715 5719 5723 5727 5730 5733 5736 5739 5741 5744 5747 5751 5753 5755 5757 5758 5760 5762 5766 5769 5771 5773 5775 5779 5782 5785 5788 5792 5794 5797 5800 5803 5806 5808 5809 5812 5815 5815 5821 5828 5829 5829 5832 5834 5838 5842 5844 5846 5847 5848 5850 5851 5852 5853
5524 5533 5543 5554 5562 5569 5577 5587 5595 5601 5603 5607 5614 5621 5626 5632 5636 5641 5644 5642 5646 5656 5663 5668 5674 5678 5680 5683 5686 5689 5695 5700 5703 5709 5714 5717 5721 5724 5727 5730 5733 5735 5737 5741 5744 5747 5749 5752 5754 5756 5758 5761 5764 5766 5769 5771 5774 5777 5780 5782 5785 5788 5790 5793 5796 5799 5801 5802 5805 5809 5812 5811 5815 5823 5826 5825 5828 5832 5836 5839 5839 5841 5844 5846 5847 5848 5849 5850
5522 5531 5541 5549 5554 5560 5569 5579 5587 5591 5596 5603 5611 5616 5619 5623 5627 5631 5630 5631 5641 5653 5659 5664 5669 5672 5675 5680 5682 5686 5693 5698 5702 5707 5710 5715 5719 5722 5724 5727 5729 5732 5734 5738 5740 5743 5746 5748 5750 5752 5755 5758 5761 5763 5766 5769 5771 5774 5776 5778 5782 5784 5786 5789 5791 5795 5796 5797 5802 5806 5808 5807 5809 5817 5822 5822 5825 5830 5833 5834 5835 5838 5841 5843 5844 5845 5846 5846
5520 5529 5536 5544 5550 5558 5568 5575 5580 5585 5592 5600 5606 5608 5611 5616 5620 5621 5621 5630 5643 5648 5652 5659 5664 5668 5672 5677 5681 5686 5692 5697 5701 5704 5707 5712 5715 5718 5720 5722 5725 5728 5731 5734 5737 5740 5743 5744 5747 5749 5752 5754 5757 5760 5763 5766 5768 5771 5773 5775 5778 5780 5782 5784 5786 5789 5790 5793 5798 5802 5803 5803 5803 5810 5818 5820 5823 5826 5828 5831 5833 5835 5837 5839 5841 5841 5842 5842
5518 5527 5535 5543 5548 5556 5566 5575 5582 5586 5590 5597 5601 5601 5604 5609 5611 5613 5620 5632 5638 5640 5649 5658 5662 5667 5673 5677 5681 5686 5691 5695 5699 5703 5707 5710 5713 5715 5717 5719 5722 5725 5728 5731 5733 5736 5739 5741 5744 5746 5749 5750 5753 5756 5759 5761 5764 5766 5769 5772 5774 5776 5777 5779 5780 5783 5786 5789 5794 5797 5798 5797 5798 5806 5814 5818 5821 5823 5825 5828 5831 5833 5834 5835 5836 5837 5838 5839
5517 5527 5534 5539 5544 5552 5562 5572 5579 5582 5586 5591 5593 5595 5600 5602 5603 5611 5622 5630 5634 5642 5654 5660 5664 5670 5673 5674 5677 5683 5689 5693 5697 5700 5704 5708 5710 5713 5715 5718 5721 5724 5727 5730 5731 5734 5736 5738 5741 5743 5745 5747 5749 5752 5755 5757 5760 5762 5765 5768 5770 5771 5772 5774 5776 5779 5783 5787 5791 5793 5793 5793 5796 5802 5810 5815 5818 5820 5822 5824 5827 5829 5831 5831 5832 5833 5834 5835
5516 5523 5528 5534 5542 5550 5559 5568 5573 5576 5580 5583 5584 5589 5594 5597 5605 5616 5623 5628 5637 5646 5651 5655 5660 5665 5667 5670 5675 5680 5684 5688 5692 5697 5701 5703 5705 5709 5712 5715 5719 5721 5724 5727 5728 5731 5733 5736 5739 5741 5743 5745 5747 5749 5752 5756 5758 5760 5763 5765 5767 5768 5770 5772 5775 5778 5782 5785 5788 5789 5788 5791 5795 5799 5805 5811 5814 5816 5819 5821 5823 5825 5826 5827 5828 5829 5830 5831
5512 5518 5524 5531 5538 5547 5555 5562 5567 5570 5574 5576 5579 5583 5588 5595 5607 5615 5619 5626 5634 5639 5645 5651 5656 5658 5661 5666 5672 5677 5680 5684 5688 5691 5696 5700 5703 5707 5709 5712 5714 5717 5719 5721 5723 5726 5728 5732 5736 5739 5741 5744 5745 5747 5750 5753 5755 5757 5759 5760 5763 5765 5768 5770 5772 5775 5779 5780 5781 5783 5784 5789 5794 5795 5799 5807 5810 5812 5814 5816 5818 5820 5822 5823 5824 5825 5826 5827
5507 5513 5521 5528 5535 5544 5551 5557 5562 5565 5569 5571 5574 5578 5588 5599 5608 5612 5618 5626 5630 5634 5641 5645 5647 5651 5656 5660 5666 5672 5678 5682 5686 5688 5691 5696 5700 5703 5706 5708 5711 5714 5716 5719 5721 5723 5725 5728 5732 5735 5737 5740 5742 5744 5746 5748 5750 5752 5754 5756 5760 5763 5764 5766 5769 5771 5773 5774 5776 5779 5782 5787 5791 5791 5795 5802 5806 5808 5810 5811 5814 5815 5817 5819 5820 5821 5821 5822
5500 5509 5519 5526 5533 5541 5548 5554 5558 5560 5563 5566 5571 5580 5593 5602 5607 5611 5616 5622 5626 5631 5636 5637 5640 5646 5652 5658 5664 5669 5674 5678 5681 5685 5690 5693 5695 5698 5702 5705 5708 5712 5714 5717 5719 5721 5724 5726 5729 5732 5734 5736 5739 5741 5743 5745 5747 5748 5750 5754 5758 5759 5761 5763 5765 5766 5768 5770 5772 5776 5779 5784 5786 5788 5792 5797 5801 5804 5806 5807 5809 5811 5812 5814 5815 5816 5817 5818
5500 5509 5518 5524 5531 5539 5545 5549 5552 5555 5557 5562 5572 5586 5594 5596 5600 5607 5612 5615 5620 5626 5631 5635 5640 5645 5650 5656 5662 5665 5669 5673 5676 5680 5684 5688 5692 5696 5699 5701 5705 5708 5710 5713 5715 5718 5721 5723 5725 5728 5731 5733 5735 5737 5739 5741 5742 5745 5748 5751 5753 5754 5757 5760 5761 5762 5764 5766 5768 5772 5776 5778 5781 5785 5789 5793 5796 5799 5802 5804 5805 5806 5807 5808 5809 5811 5813 5813
5500 5507 5513 5520 5528 5534 5538 5542 5546 5549 5551 5558 5571 5582 5588 5591 5596 5604 5608 5613 5618 5623 5628 5635 5641 5645 5649 5653 5658 5661 5665 5669 5672 5676 5679 5683 5688 5692 5695 5698 5702 5705 5707 5709 5711 5713 5716 5719 5720 5723 5727 5729 5731 5732 5734 5736 5738 5741 5744 5746 5749 5751 5754 5756 5757 5759 5762 5762 5764 5767 5769 5772 5778 5783 5786 5788 5791 5794 5798 5800 5801 5801 5802 5803 5805 5806 5807 5808
5498 5505 5510 5518 5524 5527 5531 5536 5540 5542 5549 5561 5572 5577 5583 5592 5599 5603 5606 5611 5616 5620 5626 5633 5638 5643 5647 5650 5654 5659 5663 5667 5670 5674 5677 5681 5684 5688 5691 5694 5697 5702 5704 5705 5707 5710 5713 5715 5717 5719 5722 5724 5725 5727 5730 5733 5736 5739 5741 5743 5745 5747 5749 5752 5754 5756 5758 5759 5761 5762 5763 5768 5776 5780 5783 5785 5787 5790 5793 5795 5796 5797 5798 5799 5800 5801 5802 5802
5496 5501 5505 5513 5518 5520 5524 5528 5532 5541 5553 5564 5570 5574 5581 5589 5594 5599 5603 5609 5614 5618 5625 5632 5637 5641 5644 5648 5652 5656 5660 5665 5669 5672 5675 5678 5682 5686 5690 5692 5695 5698 5699 5701 5704 5706 5708 5711 5713 5715 5717 5720 5723 5726 5729 5732 5734 5737 5738 5740 5742 5744 5746 5748 5749 5752 5755 5755 5757 5758 5758 5765 5773 5777 5780 5782 5784 5786 5788 5790 5792 5793 5794 5795 5796 5796 5797 5797
5492 5496 5503 5510 5513 5517 5522 5527 5535 5546 5553 5558 5564 5571 5579 5583 5588 5595 5600 5606 5611 5616 5622 5629 5634 5638 5642 5646 5650 5654 5658 5662 5666 5670 5673 5677 5682 5685 5689 5691 5693 5695 5697 5699 5701 5703 5706 5709 5710 5712 5715 5718 5721 5723 5725 5728 5730 5732 5734 5736 5738 5739 5740 5743 5744 5748 5751 5751 5753 5754 5752 5759 5769 5775 5777 5778 5779 5782 5784 5785 5788 5789 5790 5791 5792 5792 5792 5793
5488 5494 5502 5507 5512 5517 5522 5527 5534 5539 5545 5553 5562 5568 5574 5579 5584 5590 5595 5601 5606 5611 5617 5624 5629 5634 5639 5643 5647 5652 5657 5661 5664 5668 5672 5676 5679 5682 5685 5688 5690 5692 5694 5696 5698 5699 5702 5704 5706 5708 5711 5714 5717 5719 5721 5723 5725 5726 5728 5730 5732 5733 5736 5738 5740 5744 5745 5746 5750 5750 5747 5755 5767 5772 5773 5774 5774 5777 5779 5781 5783 5784 5785 5787 5787 5788 5788 5788
5484 5490 5496 5501 5507 5512 5517 5522 5528 5534 5541 5550 5557 5562 5569 5575 5581 5586 5591 5596 5602 5606 5613 5620 5625 5631 5636 5640 5644 5649 5654 5658 5662 5666 5669 5672 5676 5678 5680 5683 5686 5688 5691 5693 5694 5696 5697 5698 5701 5704 5706 5708 5711 5713 5714 5715 5716 5718 5722 5725 5727 5730 5732 5734 5736 5738 5738 5741 5745 5744 5744 5753 5764 5766 5767 5768 5769 5772 5774 5776 5778 5780 5781 5781 5782 5782 5782 5783
5477 5483 5490 5497 5502 5507 5514 5522 5528 5534 5538 5544 5551 5558 5566 5572 5577 5583 5588 5593 5598 5604 5610 5617 5622 5627 5631 5635 5640 5645 5649 5654 5657 5661 5664 5667 5671 5673 5676 5679 5682 5685 5688 5690 5691 5693 5693 5695 5697 5699 5700 5702 5705 5707 5709 5711 5713 5716 5720 5723 5726 5728 5729 5731 5732 5732 5733 5737 5740 5739 5743 5752 5758 5759 5761 5762 5764 5768 5769 5770 5771 5773 5774 5775 5775 5775 5776 5777
5471 5475 5481 5489 5498 5505 5512 5518 5524 5530 5535 5541 5547 5554 5561 5567 5572 5578 5583 5589 5595 5601 5608 5614 5619 5622 5625 5629 5634 5639 5644 5649 5651 5655 5660 5663 5666 5669 5671 5675 5678 5681 5683 5685 5686 5687 5688 5689 5692 5694 5696 5699 5702 5706 5710 5713 5714 5716 5720 5722 5723 5725 5726 5727 5727 5727 5731 5734 5733 5736 5742 5748 5751 5754 5755 5756 5760 5762 5763 5763 5764 5765 5766 5767 5767 5768 5769 5771
5468 5473 5480 5487 5495 5503 5509 5513 5519 5528 5536 5542 5546 5550 5557 5563 5567 5572 5578 5583 5590 5598 5604 5610 5614 5617 5621 5625 5629 5634 5640 5644 5647 5651 5654 5657 5661 5665 5667 5670 5673 5676 5678 5679 5681 5682 5682 5684 5687 5690 5693 5695 5698 5701 5704 5707 5708 5710 5713 5715 5717 5718 5719 5720 5720 5723 5728 5727 5726 5733 5739 5740 5744 5749 5749 5750 5754 5756 5756 5756 5757 5758 5758 5759 5760 5762 5764 5765
5469 5476 5483 5488 5493 5499 5506 5512 5519 5526 5534 5541 5546 5550 5554 5558 5562 5568 5573 5579 5586 5594 5600 5605 5609 5614 5618 5622 5626 5631 5635 5638 5642 5646 5649 5652 5656 5659 5662 5665 5667 5670 5673 5674 5676 5677 5678 5680 5684 5686 5689 5691 5692 5694 5698 5700 5702 5704 5705 5707 5709 5710 5711 5712 5714 5718 5721 5719 5721 5730 5732 5732 5738 5743 5744 5746 5747 5747 5749 5750 5750 5751 5752 5752 5754 5757 5758 5758
5470 5475 5480 5486 5493 5499 5505 5511 5517 5523 5529 5535 5541 5546 5551 5556 5561 5565 5570 5576 5583 5589 5595 5600 5605 5610 5614 5618 5623 5627 5630 5634 5637 5641 5645 5649 5651 5654 5656 5659 5662 5665 5667 5669 5671 5673 5674 5677 5679 5681 5684 5686 5687 5690 5693 5695 5697 5699 5701 5702 5704 5705 5706 5708 5710 5713 5713 5712 5718 5724 5723 5725 5733 5737 5737 5739 5739 5740 5743 5743 5742 5744 5745 5747 5749 5750 5751 5751
5467 5472 5477 5484 5491 5498 5503 5507 5512 5518 5524 5530 5535 5542 5549 5555 5560 5564 5568 5574 5581 5586 5592 5597 5603 5607 5610 5613 5618 5622 5628 5633 5637 5640 5643 5645 5648 5651 5653 5655 5659 5661 5663 5665 5667 5669 5671 5673 5675 5678 5680 5681 5684 5687 5688 5689 5691 5693 5695 5698 5701 5702 5703 5704 5706 5708 5708 5708 5714 5717 5715 5721 5729 5730 5729 5733 5734 5734 5734 5734 5735 5738 5739 5741 5742 5743 5744 5743
5464 5471 5478 5483 5487 5493 5499 5505 5511 5515 5519 5524 5531 5539 5545 5552 5558 5562 5567 5574 5580 5586 5591 5596 5600 5604 5607 5610 5614 5620 5625 5630 5634 5639 5642 5645 5648 5650 5652 5654 5657 5658 5660 5662 5664 5667 5670 5671 5674 5676 5676 5679 5683 5683 5683 5684 5685 5686 5690 5696 5698 5698 5698 5700 5702 5704 5704 5706 5710 5711 5712 5719 5724 5723 5725 5729 5729 5726 5726 5727 5730 5732 5733 5734 5735 5735 5735 5736
5461 5467 5474 5479 5484 5490 5495 5501 5507 5512 5518 5524 5530 5535 5541 5547 5553 5558 5564 5572 5578 5584 5590 5595 5598 5601 5604 5607 5613 5618 5623 5627 5630 5634 5637 5640 5643 5645 5647 5650 5652 5654 5656 5659 5661 5664 5667 5668 5670 5671 5673 5676 5678 5677 5678 5679 5677 5680 5688 5693 5694 5694 5695 5697 5698 5700 5701 5702 5703 5704 5708 5715 5716 5716 5720 5723 5721 5718 5719 5721 5723 5724 5726 5727 5727 5727 5727 5728